Погода в Феодосии

Россия / Республика Крым     45°01′55″N   35°22′52″E
темп.,
°C
ветер,
м/с
пор.,
м/с
влажн.,
%
обл.,
%
осадки,
мм/ч
давл.,
гПа
погр.,
м
2 декабря, чт
чт200:00+8з812633 0.0 10111217
03:00+7зсз711635 0.0 1013879
06:00+7зюз3664100 0.0 1014497
09:00+9ююз56575 0.0 1015800
12:00+10юз9106513 0.0 10161290
15:00+11ююз10116912 0.0 10151204
18:00+11ююз1113805 0.0 1015943
21:00+11ююз1214735 0.0 10151018
3 декабря, пт
пт300:00+11ююз12137760 0.0 1015850
03:00+11ю1012829 0.0 1015763
06:00+11ю9108369 0.0 1015662
09:00+11ю9108635 0.0 1015566
12:00+12ю79843 0.0 1014428
15:00+12ю8117999 0.0 1013452
18:00+12ю9127924 0.0 1013373
21:00+13ююз101675100 0.0 1014443
4 декабря, сб
сб400:00+12ююз7108155 0.0 1015256
03:00+13ююз61081100 0.0 1014206
06:00+12ююз6883100 0.0 1014174
09:00+12ююз71084100 0.0 1014235
12:00+12зюз2381100 0.0 101330
15:00+12ю4484100 0.0 101280
18:00+12ююз4490100 0.5 101267
21:00+12юз4694100 1.4 1012181
5 декабря, вс
вс500:00+12ююз71092100 0.3 1012337
03:00+11юз3493100 0.3 1011138
06:00+11юз1295100 0.3 1011109
09:00+12ююз3497100 0.8 1012150
12:00+12ююз7109596 0.3 1012311
15:00+12юз799361 0.3 1012266
18:00+12юз579279 0.0 1013200
21:00+12ююз569348 0.0 1014197
6 декабря, пн
пн600:00+12ююз689181 0.0 1015221
03:00+11ююз689095 0.0 1015217
06:00+11ююз68899 0.0 1015212
09:00+12ююз578766 0.0 1016174
12:00+12ю578197 0.0 1017149
15:00+12ю6880100 0.0 1016149
18:00+12ююв6883100 0.0 1017129
21:00+12ююв688571 0.0 1017133